Radiation Dose at Monitoring Post of Fukushima Daini Nuclear Power Station
Date,Time,MP-1(microSv/h),MP-2(microSv/h),MP-3(microSv/h),MP-4(microSv/h),MP-5(microSv/h),MP-6(microSv/h),MP-7(microSv/h),Wind Direction,Wind Velocity(m/s),Rain
2014/06/05,00:00,0.7,0.5,0.8,0.7,0.6,0.3,0.3,south-southwest,5.9,No
2014/06/05,00:10,0.7,0.5,0.8,0.7,0.6,0.3,0.3,south,6.1,No
2014/06/05,00:20,0.7,0.5,0.8,0.7,0.6,0.3,0.3,south-southwest,6.7,No
2014/06/05,00:30,0.7,0.5,0.8,0.7,0.6,0.3,0.3,south-southwest,6.7,No
2014/06/05,00:40,0.7,0.5,0.8,0.7,0.6,0.3,0.3,south-southwest,6.9,No
2014/06/05,00:50,0.7,0.5,0.8,0.7,0.6,0.3,0.3,south,6.4,No
2014/06/05,01:00,0.7,0.5,0.8,0.7,0.6,0.3,0.3,south-southwest,6.2,No
2014/06/05,01:10,0.7,0.5,0.8,0.7,0.6,0.3,0.3,south-southwest,6.0,No
2014/06/05,01:20,0.7,0.5,0.8,0.7,0.6,0.3,0.3,south-southwest,5.6,No
2014/06/05,01:30,0.7,0.5,0.8,0.7,0.6,0.3,0.3,south,5.9,No
2014/06/05,01:40,0.7,0.5,0.8,0.7,0.6,0.3,0.3,south,5.8,No
2014/06/05,01:50,0.7,0.5,0.8,0.7,0.6,0.3,0.3,south,5.6,No
2014/06/05,02:00,0.7,0.5,0.8,0.7,0.6,0.3,0.3,south,5.6,No
2014/06/05,02:10,0.7,0.5,0.8,0.7,0.6,0.3,0.3,south-southwest,5.3,No
2014/06/05,02:20,0.7,0.5,0.8,0.7,0.6,0.3,0.3,south,5.5,No
2014/06/05,02:30,0.7,0.5,0.8,0.7,0.6,0.3,0.3,south,5.3,No
2014/06/05,02:40,0.7,0.5,0.8,0.7,0.6,0.3,0.3,south-southwest,5.5,No
2014/06/05,02:50,0.7,0.5,0.8,0.7,0.6,0.3,0.3,south-southwest,5.2,No
2014/06/05,03:00,0.7,0.5,0.8,0.7,0.6,0.3,0.3,south-southwest,5.3,No
2014/06/05,03:10,0.7,0.5,0.8,0.7,0.6,0.3,0.3,south,4.8,No
2014/06/05,03:20,0.7,0.5,0.8,0.7,0.6,0.3,0.3,south,4.4,No
2014/06/05,03:30,0.7,0.5,0.8,0.7,0.6,0.3,0.3,south,4.5,No
2014/06/05,03:40,0.7,0.5,0.8,0.7,0.6,0.3,0.3,south,3.8,No
2014/06/05,03:50,0.7,0.5,0.8,0.7,0.6,0.3,0.3,south,3.9,No
2014/06/05,04:00,0.7,0.5,0.8,0.7,0.6,0.3,0.3,south,3.6,No
2014/06/05,04:10,0.7,0.5,0.8,0.7,0.6,0.3,0.3,south,3.6,No
2014/06/05,04:20,0.7,0.5,0.8,0.7,0.6,0.3,0.3,south,3.4,No
2014/06/05,04:30,0.7,0.5,0.8,0.7,0.6,0.3,0.3,south,2.8,No
2014/06/05,04:40,0.7,0.5,0.8,0.7,0.6,0.3,0.3,south,2.2,No
2014/06/05,04:50,0.7,0.5,0.8,0.7,0.6,0.3,0.3,south,2.1,No
2014/06/05,05:00,0.7,0.5,0.8,0.7,0.6,0.3,0.3,south-southeast,1.7,No
2014/06/05,05:10,0.7,0.5,0.8,0.7,0.6,0.3,0.3,south-southeast,1.3,No
2014/06/05,05:20,0.7,0.5,0.8,0.7,0.6,0.3,0.3,south-southeast,1.0,No
2014/06/05,05:30,0.7,0.5,0.8,0.7,0.6,0.3,0.3,southeast,1.4,No
2014/06/05,05:40,0.7,0.5,0.8,0.7,0.6,0.3,0.3,south-southeast,1.1,No
2014/06/05,05:50,0.7,0.5,0.8,0.7,0.6,0.3,0.3,south-southeast,1.1,No
2014/06/05,06:00,0.7,0.5,0.8,0.7,0.6,0.3,0.3,south-southeast,0.7,No
2014/06/05,06:10,0.7,0.5,0.8,0.7,0.6,0.3,0.3,south-southeast,0.8,No
2014/06/05,06:20,0.7,0.5,0.8,0.7,0.6,0.3,0.3,south-southeast,1.0,No
2014/06/05,06:30,0.7,0.5,0.8,0.7,0.6,0.3,0.3,south-southeast,1.1,No
2014/06/05,06:40,0.7,0.5,0.8,0.7,0.6,0.3,0.3,south,1.0,No
2014/06/05,06:50,0.7,0.5,0.8,0.7,0.6,0.3,0.3,south-southeast,1.2,No
2014/06/05,07:00,0.7,0.5,0.8,0.7,0.6,0.3,0.3,south-southeast,0.8,No
2014/06/05,07:10,0.7,0.5,0.8,0.7,0.6,0.3,0.3,south-southeast,1.0,No
2014/06/05,07:20,0.7,0.5,0.8,0.7,0.6,0.3,0.3,-,CALM,No
2014/06/05,07:30,0.7,0.5,0.8,0.7,0.6,0.3,0.3,south,1.5,No
2014/06/05,07:40,0.7,0.5,0.8,0.7,0.6,0.3,0.3,west-southwest,1.0,No
2014/06/05,07:50,0.7,0.5,0.8,0.7,0.6,0.3,0.3,south,0.9,No
2014/06/05,08:00,0.7,0.5,0.8,0.7,0.6,0.3,0.3,southwest,1.0,No
2014/06/05,08:10,0.7,0.5,0.8,0.7,0.6,0.3,0.3,south-southwest,0.6,No
2014/06/05,08:20,0.7,0.5,0.8,0.7,0.7,0.3,0.3,-,CALM,No
2014/06/05,08:30,0.7,0.5,0.8,0.7,0.6,0.3,0.3,southeast,0.7,No
2014/06/05,08:40,0.7,0.5,0.8,0.7,0.7,0.3,0.3,east-southeast,0.7,No
2014/06/05,08:50,0.7,0.5,0.8,0.7,0.7,0.3,0.3,east,1.4,No
2014/06/05,09:00,0.7,0.5,0.8,0.7,0.7,0.3,0.3,east-southeast,1.6,No
2014/06/05,09:10,0.7,0.5,0.8,0.7,0.7,0.3,0.3,south-southeast,1.1,No
2014/06/05,09:20,0.7,0.5,0.8,0.7,0.7,0.3,0.3,southeast,1.4,No
2014/06/05,09:30,0.7,0.5,0.8,0.7,0.7,0.3,0.3,south-southeast,1.8,No
2014/06/05,09:40,0.7,0.5,0.8,0.7,0.7,0.3,0.3,south-southeast,1.6,No
2014/06/05,09:50,0.7,0.5,-,0.7,0.7,0.3,0.3,south-southeast,1.4,No
2014/06/05,10:00,0.7,0.5,-,0.7,0.7,0.3,0.3,south,2.2,No
2014/06/05,10:10,0.7,0.5,-,0.7,0.7,0.3,0.3,south-southeast,1.9,No
2014/06/05,10:20,0.7,0.5,-,0.7,0.7,0.3,0.3,south-southeast,2.3,No
2014/06/05,10:30,0.7,0.5,-,0.7,0.7,0.3,0.3,south,2.3,No
2014/06/05,10:40,0.7,0.5,-,0.7,0.7,0.3,0.3,south-southeast,2.0,No
2014/06/05,10:50,0.7,0.5,-,0.7,0.7,0.3,0.3,south-southeast,2.5,No
2014/06/05,11:00,0.7,0.5,-,0.7,0.7,0.3,0.3,south,3.3,No
2014/06/05,11:10,0.7,0.5,-,0.7,0.7,0.3,0.3,south,4.4,No
2014/06/05,11:20,0.7,0.5,-,0.7,0.7,0.3,0.3,south,5.3,No
2014/06/05,11:30,0.7,0.5,-,0.7,0.7,0.3,0.3,south-southeast,3.9,No
2014/06/05,11:40,0.7,0.5,-,0.7,0.7,0.3,0.3,south-southeast,3.1,No
2014/06/05,11:50,0.7,0.5,-,0.7,0.7,0.3,0.3,south-southeast,2.5,No
2014/06/05,12:00,0.7,0.5,-,0.7,0.7,0.3,0.3,south-southeast,3.0,No
2014/06/05,12:10,0.7,0.5,-,0.7,0.7,0.3,0.3,south,4.1,No
2014/06/05,12:20,0.7,0.5,-,0.7,0.7,0.3,0.3,south-southeast,3.6,No
2014/06/05,12:30,0.7,0.5,-,0.7,0.7,0.3,0.3,south,4.4,No
2014/06/05,12:40,0.7,0.5,-,0.7,0.7,0.3,0.3,south,3.9,No
2014/06/05,12:50,0.7,0.5,-,0.7,0.7,0.3,0.3,south-southeast,3.7,No
2014/06/05,13:00,0.7,0.5,-,0.7,0.7,0.3,0.3,south-southeast,3.8,No
2014/06/05,13:10,0.7,0.5,-,0.7,0.7,0.3,0.3,south-southeast,3.3,No
2014/06/05,13:20,0.7,0.5,-,0.7,0.7,0.3,0.3,south-southeast,3.2,No
2014/06/05,13:30,0.7,0.5,-,0.7,0.7,0.3,0.3,south-southeast,3.9,No
2014/06/05,13:40,0.7,0.5,-,0.7,0.7,0.3,0.3,south-southeast,4.7,No
2014/06/05,13:50,0.7,0.5,-,0.7,0.7,0.3,0.3,south-southeast,4.9,No
2014/06/05,14:00,0.7,0.5,-,0.7,0.6,0.3,0.3,south-southeast,4.2,No
2014/06/05,14:10,0.7,0.5,-,0.7,0.7,0.3,0.3,south-southeast,4.4,No
2014/06/05,14:20,0.7,0.5,-,0.7,0.7,0.3,0.3,south-southeast,3.6,No
2014/06/05,14:30,0.7,0.5,-,0.7,0.6,0.3,0.3,southeast,4.7,No
2014/06/05,14:40,0.7,0.5,-,0.7,0.7,0.3,0.3,south-southeast,5.0,No
2014/06/05,14:50,0.7,0.5,-,0.7,0.6,0.3,0.3,south-southeast,5.0,No
2014/06/05,15:00,0.7,0.5,-,0.7,0.6,0.3,0.3,south-southeast,4.9,No
2014/06/05,15:10,0.7,0.5,-,0.7,0.6,0.3,0.3,south,4.3,Yes
2014/06/05,15:20,0.7,0.5,-,0.7,0.7,0.3,0.3,south,3.3,Yes
2014/06/05,15:30,0.7,0.5,-,0.7,0.7,0.3,0.3,south,2.8,Yes
2014/06/05,15:40,0.7,0.5,-,0.7,0.7,0.3,0.3,south-southeast,2.2,Yes
2014/06/05,15:50,0.7,0.5,-,0.7,0.6,0.3,0.3,south-southeast,3.1,Yes
2014/06/05,16:00,0.7,0.5,0.8,0.7,0.6,0.3,0.3,south,3.4,Yes
2014/06/05,16:10,0.7,0.5,0.8,0.7,0.7,0.3,0.3,south,2.8,Yes
2014/06/05,16:20,0.7,0.5,0.8,0.7,0.7,0.3,0.3,south-southeast,2.9,Yes
2014/06/05,16:30,0.7,0.5,0.8,0.7,0.6,0.3,0.3,south,2.3,No
2014/06/05,16:40,0.7,0.5,0.8,0.7,0.6,0.3,0.3,south,2.6,No
2014/06/05,16:50,0.7,0.5,0.8,0.7,0.6,0.3,0.3,south-southeast,2.3,No
2014/06/05,17:00,0.7,0.5,0.8,0.7,0.6,0.3,0.3,south-southeast,2.6,No
2014/06/05,17:10,0.7,0.5,0.8,0.7,0.7,0.3,0.3,south,3.1,No
2014/06/05,17:20,0.7,0.5,0.8,0.7,0.7,0.3,0.3,south-southeast,2.5,No
2014/06/05,17:30,0.7,0.5,0.8,0.7,0.6,0.3,0.3,south-southeast,2.9,No
2014/06/05,17:40,0.7,0.5,0.8,0.7,0.6,0.3,0.3,south-southeast,2.7,No
2014/06/05,17:50,0.7,0.5,0.8,0.7,0.6,0.3,0.3,south-southeast,2.5,No
2014/06/05,18:00,0.7,0.5,0.8,0.7,0.6,0.3,0.3,south-southeast,2.1,No
2014/06/05,18:10,0.7,0.5,0.8,0.7,0.6,0.3,0.3,south-southeast,2.0,No
2014/06/05,18:20,0.7,0.5,0.8,0.7,0.6,0.3,0.3,south-southeast,2.8,No
2014/06/05,18:30,0.7,0.5,0.8,0.7,0.6,0.3,0.3,south-southeast,2.9,Yes
2014/06/05,18:40,0.7,0.5,0.8,0.7,0.6,0.3,0.3,south-southeast,4.2,Yes
2014/06/05,18:50,0.7,0.5,0.8,0.7,0.6,0.3,0.3,south,3.8,Yes
2014/06/05,19:00,0.7,0.5,0.8,0.7,0.6,0.3,0.3,south,2.6,Yes
2014/06/05,19:10,0.7,0.5,0.8,0.7,0.6,0.3,0.3,south,2.8,Yes
2014/06/05,19:20,0.7,0.5,0.8,0.7,0.6,0.3,0.3,south,2.5,Yes
2014/06/05,19:30,0.7,0.5,0.8,0.7,0.6,0.3,0.3,south,1.9,Yes
2014/06/05,19:40,0.7,0.5,0.8,0.7,0.6,0.3,0.3,south,1.7,No
2014/06/05,19:50,0.7,0.5,0.8,0.7,0.6,0.3,0.3,south,1.9,No
2014/06/05,20:00,0.7,0.5,0.8,0.7,0.6,0.3,0.3,south,2.2,No
2014/06/05,20:10,0.7,0.5,0.8,0.7,0.6,0.3,0.3,south,1.6,No
2014/06/05,20:20,0.7,0.5,0.8,0.7,0.6,0.3,0.3,south,1.1,No
2014/06/05,20:30,0.7,0.5,0.8,0.7,0.6,0.3,0.3,south-southwest,0.7,No
2014/06/05,20:40,0.7,0.5,0.8,0.7,0.6,0.3,0.3,-,CALM,No
2014/06/05,20:50,0.7,0.5,0.8,0.7,0.6,0.3,0.3,east-southeast,0.5,No
2014/06/05,21:00,0.7,0.5,0.8,0.7,0.6,0.3,0.3,southeast,0.8,Yes
2014/06/05,21:10,0.7,0.5,0.8,0.7,0.6,0.3,0.3,southeast,0.8,Yes
2014/06/05,21:20,0.7,0.5,0.8,0.7,0.6,0.3,0.3,east-southeast,0.7,Yes
2014/06/05,21:30,0.7,0.5,0.8,0.7,0.6,0.3,0.3,-,CALM,Yes
2014/06/05,21:40,0.7,0.5,0.8,0.7,0.6,0.3,0.3,east,0.7,Yes
2014/06/05,21:50,0.7,0.5,0.8,0.7,0.6,0.3,0.3,east,1.1,Yes
2014/06/05,22:00,0.7,0.5,0.8,0.7,0.6,0.3,0.3,east-northeast,1.6,Yes
2014/06/05,22:10,0.7,0.5,0.8,0.7,0.6,0.3,0.3,northeast,1.8,No
2014/06/05,22:20,0.7,0.5,0.8,0.7,0.6,0.3,0.3,northeast,1.6,No
2014/06/05,22:30,0.7,0.5,0.8,0.7,0.6,0.3,0.3,north-northeast,1.5,Yes
2014/06/05,22:40,0.7,0.5,0.8,0.7,0.6,0.3,0.3,north-northeast,1.5,Yes
2014/06/05,22:50,0.7,0.5,0.8,0.7,0.6,0.3,0.3,east-northeast,1.0,Yes
2014/06/05,23:00,0.7,0.5,0.8,0.7,0.6,0.3,0.3,east-southeast,1.0,Yes
2014/06/05,23:10,0.7,0.5,0.8,0.7,0.6,0.3,0.3,east,1.2,Yes
2014/06/05,23:20,0.7,0.5,0.7,0.7,0.6,0.3,0.3,east-southeast,0.7,Yes
2014/06/05,23:30,0.7,0.5,0.8,0.7,0.6,0.3,0.3,east-southeast,1.1,Yes
2014/06/05,23:40,0.7,0.5,0.8,0.7,0.6,0.3,0.3,east-southeast,1.1,Yes
2014/06/05,23:50,0.7,0.5,0.8,0.7,0.6,0.3,0.3,east-southeast,1.3,Yes
